Location: Melbourne
(37.8170°S, 144.9670°E)
Time: 22:05:42
(UTC+10:00)

Vanguard 1 Rocket - Visible Passes

Search period start: 27 April 2015 00:00
Search period end: 07 May 2015 00:00
Orbit: 655 x 4224 km, 34.3° (Epoch: 22 April)

Date Brightness Start Highest point End Pass type
(mag) Time Alt. Az. Time Alt. Az. Time Alt. Az.
27 Apr 9.7 19:27:00 10° W 19:33:52 34° NNW 19:45:35 10° NE visible
27 Apr 11.1 21:56:30 10° NW 22:02:11 13° NNW 22:05:07 12° NNW visible
28 Apr 9.1 18:16:35 10° W 18:22:28 41° NNW 18:32:44 10° NE visible
28 Apr 10.6 20:42:54 10° WNW 20:49:36 19° NNW 20:58:43 10° N visible
29 Apr 10.1 19:31:21 10° WNW 19:37:37 25° NNW 19:47:19 10° NNE visible
30 Apr 9.5 18:20:39 10° W 18:26:11 32° NNW 18:35:13 10° NE visible
30 Apr 10.9 20:49:18 10° NW 20:53:28 12° NNW 20:57:48 10° N visible
01 May 10.4 19:36:14 10° WNW 19:41:26 18° NNW 19:48:24 10° NNE visible
02 May 9.9 18:24:58 10° WNW 18:29:58 24° NNW 18:37:19 10° NNE visible
03 May 10.8 19:42:51 10° NW 19:45:18 11° NNW 19:47:37 10° NNW visible
04 May 10.3 18:29:48 10° WNW 18:33:45 16° NNW 18:38:45 10° NNE visible
